Вернуться в каталог

METEOR 2-6 DEB

АктивенPO
NORAD 31406·DEBRIS·🇷🇺 Russia

Запущен Sep 9, 1980 с Plesetsk Cosmodrome

Loading…

Ближайшие Пролёты (ближайшие 24 часа)

TLE

СвежийSource: Space-Track

Эпоха: Sep 13, 2026, 21:30 UTC

1 31406U 80073H   26256.89593801  .00003822  00000-0  98033-3 0  9997
2 31406  81.2155 226.9325 0030074 244.0525 115.7568 14.49897484120580

Отслеживайте METEOR 2-6 DEB в реальном времени с AllMySat

Download on the App Store